Probability
0 3 35 45 48 55 55 55 55 52 71 71 71 68 55 58 55 58 55 52 52 55 48 42 42 35 32 35 29 29 32 29 19 19 16 13 10 10 10 6 3 0 0
0 10 32 39 42 48 48 52 48 48 48 52 55 52 52 48 52 55 52 55 55 52 48 35 29 29 26 26 29 26 29 29 23 19 16 10 10 6 6 3 0 0 0
0 19 32 39 39 42 45 45 42 45 45 39 42 42 39 35 45 45 48 48 45 48 45 39 32 39 32 32 35 32 29 26 16 13 10 0 3 6 6 3 0 0 0
10 16 26 39 39 42 42 39 35 42 39 39 29 35 32 29 35 35 39 42 39 39 35 35 32 35 35 32 32 29 29 23 13 10 3 0 0 3 6 3 0 0 0
6 13 23 32 39 35 39 39 39 32 35 32 29 19 32 29 26 26 32 32 35 35 39 32 26 32 42 32 29 23 19 19 13 6 0 0 0 3 3 0 0 0 0
6 13 19 29 29 32 32 39 39 32 29 29 29 19 23 23 26 23 23 26 32 35 32 29 29 26 32 42 35 23 16 19 10 0 0 0 0 0 3 6 6 0 0
10 13 19 23 26 26 29 32 32 29 23 19 23 19 23 19 26 16 23 19 23 29 29 26 26 29 29 32 29 29 19 16 0 0 0 0 0 3 6 3 6 3 0
10 16 16 23 23 23 26 26 23 26 23 19 13 13 16 19 19 26 13 19 23 23 19 13 19 29 26 23 23 29 19 13 0 0 0 0 0 3 13 6 10 6 3
10 13 13 23 23 23 23 26 23 19 10 16 16 13 13 10 10 19 10 13 19 16 13 10 13 19 23 19 16 16 10 6 0 0 0 0 0 3 6 6 6 3 3
0 10 6 13 16 13 16 16 13 10 10 6 10 3 3 0 6 10 6 10 6 10 13 10 10 13 19 19 16 10 3 3 0 0 0 0 0 3 3 10 3 6 3
3 0 0 3 3 6 10 10 6 3 0 0 3 0 0 0 0 0 0 3 6 6 6 3 6 6 6 3 3 3 3 0 0 0 0 0 0 3 6 6 10 6 6
3 0 0 0 3 3 6 10 6 3 0 0 0 0 0 0 0 0 0 0 3 3 0 0 0 0 0 0 0 0 0 0 0 0 0 0 0 3 6 6 16 6 0
0 0 0 0 0 3 3 3 0 0 0 0 0 0 0 0 0 0 0 0 0 0 0 0 0 0 0 0 0 0 0 0 0 0 0 0 0 3 6 6 13 13 3
0 0 0 0 0 3 3 3 3 0 0 0 0 0 0 0 0 0 0 0 0 0 0 0 0 0 0 0 0 0 0 0 0 0 0 0 0 3 6 6 6 6 3
0 0 0 0 0 3 3 3 3 0 0 0 0 0 0 0 0 0 0 0 0 0 0 0 0 0 0 0 0 0 0 0 0 0 0 0 0 0 6 6 6 6 3
0 0 0 0 0 0 3 0 0 0 0 0 0 0 0 0 0 0 0 0 0 0 0 0 0 0 0 0 0 0 0 0 0 0 0 0 0 0 0 6 6 6 6
0 0 0 0 0 0 3 3 0 0 0 0 0 0 0 0 0 0 0 0 0 0 0 0 0 0 0 0 0 0 0 0 0 0 0 0 0 0 0 3 3 3 3
0 0 0 0 0 0 0 3 0 0 0 0 0 0 0 0 0 0 0 0 0 0 0 0 0 0 0 0 0 0 0 0 0 0 0 0 0 0 0 0 0 3 3
0 0 0 0 0 0 0 0 0 0 0 0 0 0 0 0 0 0 0 0 0 0 0 0 0 0 0 0 0 0 0 0 0 0 0 0 0 0 0 0 0 0 0
0 0 0 0 0 0 0 0 0 0 0 0 0 0 0 0 0 0 0 0 0 0 0 0 0 0 0 0 0 0 0 0 0 0 0 0 0 0 0 0 0 0 0
0 0 0 0 0 0 0 0 0 0 0 0 0 0 0 0 0 0 0 0 0 0 0 0 0 0 0 0 0 0 0 0 0 0 0 0 0 0 0 0 0 0 0
0 0 0 0 0 0 0 0 0 0 0 0 0 0 0 0 0 0 0 0 0 0 0 0 0 0 0 0 0 0 0 0 0 0 0 0 0 0 0 0 0 0 0
0 0 0 0 0 0 0 0 0 0 0 0 0 0 0 0 0 0 0 0 0 0 0 0 0 0 0 0 0 0 0 0 0 0 0 0 0 0 0 0 0 0 0
0 0 0 0 0 0 0 0 0 0 0 0 0 0 0 0 0 0 0 0 0 0 0 0 0 0 0 0 0 0 0 0 0 0 0 0 0 0 0 0 0 0 0
0 0 0 0 0 0 0 0 0 0 0 0 0 0 0 0 0 0 0 0 0 0 0 0 0 0 0 0 0 0 0 0 0 0 0 0 0 0 0 0 0 0 0
0 0 0 0 0 0 0 0 0 0 0 0 0 0 0 0 0 0 0 0 0 0 0 0 0 0 0 0 0 0 0 0 0 0 0 0 0 0 0 0 0 0 0
Height
5852 5852 5853 5854 5854 5855 5856 5856 5857 5858 5859 5859 5860 5861 5861 5862 5863 5863 5864 5864 5865 5865 5865 5865 5865 5865 5865 5865 5864 5864 5864 5863 5863 5863 5862 5861 5861 5860 5859 5859 5858 5857 5856
5848 5849 5850 5850 5851 5852 5853 5853 5854 5855 5855 5856 5857 5857 5858 5859 5859 5860 5860 5861 5862 5862 5862 5862 5863 5863 5862 5862 5862 5862 5862 5861 5861 5861 5860 5859 5859 5858 5857 5857 5856 5855 5854
5845 5846 5846 5847 5848 5849 5849 5850 5851 5851 5852 5853 5853 5854 5855 5855 5856 5856 5857 5858 5858 5859 5859 5859 5859 5860 5860 5860 5859 5859 5859 5859 5858 5858 5858 5857 5857 5856 5855 5854 5854 5853 5852
5841 5842 5842 5843 5844 5845 5845 5846 5847 5848 5848 5849 5850 5850 5851 5851 5852 5853 5853 5854 5854 5855 5855 5855 5856 5856 5856 5856 5856 5856 5856 5856 5856 5855 5855 5854 5854 5853 5852 5852 5851 5850 5850
5837 5838 5838 5839 5839 5840 5841 5842 5842 5843 5844 5845 5845 5846 5846 5847 5848 5848 5849 5850 5850 5851 5851 5852 5852 5852 5853 5853 5853 5853 5853 5852 5852 5852 5852 5851 5851 5850 5849 5849 5848 5847 5846
5832 5833 5833 5834 5835 5835 5836 5837 5837 5838 5839 5840 5841 5841 5842 5842 5843 5844 5844 5845 5846 5846 5847 5847 5848 5848 5848 5849 5849 5849 5849 5848 5848 5848 5848 5848 5847 5847 5846 5845 5845 5844 5843
5827 5827 5828 5829 5829 5830 5831 5831 5832 5833 5833 5834 5835 5836 5836 5837 5838 5838 5839 5840 5840 5841 5842 5842 5843 5843 5844 5844 5844 5844 5844 5844 5844 5844 5844 5844 5843 5843 5842 5841 5841 5840 5839
5821 5822 5822 5822 5823 5824 5825 5825 5826 5826 5827 5828 5829 5830 5831 5831 5832 5832 5833 5834 5835 5836 5836 5837 5837 5838 5838 5839 5839 5839 5839 5839 5840 5840 5840 5839 5839 5838 5838 5837 5836 5836 5835
5815 5816 5816 5816 5817 5817 5818 5818 5819 5819 5820 5821 5822 5823 5824 5824 5825 5826 5827 5828 5829 5829 5830 5831 5831 5832 5833 5833 5834 5834 5834 5834 5834 5835 5835 5835 5834 5834 5833 5833 5832 5831 5830
5809 5809 5809 5809 5810 5810 5810 5811 5811 5812 5812 5813 5814 5815 5816 5817 5818 5819 5820 5821 5821 5822 5823 5824 5825 5826 5826 5827 5828 5828 5828 5829 5829 5829 5829 5829 5829 5829 5828 5828 5827 5826 5825
5801 5801 5801 5802 5802 5802 5802 5803 5803 5803 5804 5804 5805 5806 5807 5808 5810 5810 5812 5813 5814 5815 5816 5817 5818 5819 5819 5820 5821 5822 5822 5823 5823 5823 5824 5824 5823 5823 5823 5822 5822 5821 5820
5793 5793 5793 5793 5793 5793 5794 5794 5794 5794 5794 5795 5795 5796 5798 5799 5800 5801 5803 5804 5805 5807 5808 5809 5810 5811 5812 5813 5814 5815 5816 5816 5817 5817 5817 5817 5817 5817 5817 5816 5816 5815 5814
5785 5785 5785 5785 5785 5785 5785 5785 5785 5785 5785 5785 5785 5786 5787 5789 5790 5792 5793 5795 5796 5798 5799 5801 5802 5803 5804 5806 5807 5807 5808 5809 5810 5810 5810 5811 5811 5811 5810 5810 5809 5809 5808
5777 5776 5776 5776 5776 5775 5775 5775 5775 5775 5775 5775 5775 5776 5776 5778 5780 5781 5783 5785 5787 5788 5790 5791 5793 5794 5796 5797 5798 5799 5800 5801 5802 5803 5803 5803 5804 5804 5804 5803 5803 5802 5802
5768 5767 5767 5767 5766 5766 5765 5765 5764 5764 5764 5764 5765 5765 5766 5767 5769 5771 5773 5775 5776 5778 5779 5782 5783 5785 5786 5788 5789 5790 5792 5793 5794 5794 5795 5796 5796 5796 5796 5796 5795 5795 5794
5759 5758 5757 5757 5756 5756 5755 5754 5754 5753 5753 5753 5754 5754 5755 5756 5757 5759 5761 5763 5765 5767 5769 5771 5773 5775 5776 5778 5779 5781 5782 5784 5785 5786 5786 5787 5788 5788 5788 5788 5788 5788 5787
5750 5748 5747 5746 5746 5745 5744 5743 5743 5742 5742 5742 5742 5742 5743 5744 5745 5747 5749 5752 5754 5756 5758 5760 5762 5764 5766 5768 5770 5771 5773 5774 5775 5776 5777 5777 5778 5779 5779 5780 5780 5780 5779
5740 5739 5738 5736 5735 5734 5733 5732 5731 5731 5730 5730 5730 5730 5730 5731 5733 5735 5737 5739 5742 5744 5746 5748 5751 5753 5755 5757 5759 5760 5762 5763 5764 5765 5766 5767 5768 5769 5770 5770 5771 5771 5771
5730 5729 5728 5726 5725 5724 5723 5721 5720 5719 5718 5717 5717 5717 5717 5717 5719 5721 5724 5726 5728 5730 5733 5735 5738 5740 5742 5745 5747 5749 5750 5752 5753 5755 5756 5756 5757 5758 5759 5760 5761 5761 5761
5719 5718 5717 5716 5714 5713 5712 5711 5709 5708 5706 5705 5704 5703 5703 5703 5705 5707 5710 5712 5714 5717 5719 5722 5724 5727 5729 5731 5734 5736 5738 5740 5741 5743 5744 5745 5746 5747 5748 5749 5750 5751 5751
5709 5708 5706 5705 5703 5702 5701 5699 5698 5696 5694 5692 5690 5689 5688 5688 5690 5693 5696 5698 5700 5703 5706 5708 5710 5712 5715 5717 5720 5722 5725 5726 5728 5730 5731 5733 5734 5735 5736 5737 5738 5739 5740
5699 5697 5696 5694 5692 5691 5689 5688 5686 5684 5682 5679 5677 5675 5674 5674 5676 5678 5681 5684 5686 5688 5690 5693 5696 5699 5701 5703 5705 5708 5710 5714 5715 5717 5718 5720 5721 5722 5723 5724 5725 5727 5728
5689 5687 5685 5683 5681 5679 5677 5675 5673 5671 5668 5666 5664 5662 5661 5661 5662 5665 5667 5670 5672 5674 5677 5679 5681 5684 5687 5689 5690 5693 5695 5699 5701 5704 5705 5706 5707 5709 5710 5711 5712 5714 5715
5678 5676 5674 5672 5670 5668 5665 5663 5660 5658 5656 5654 5651 5650 5649 5648 5649 5652 5654 5656 5658 5660 5662 5664 5666 5669 5672 5675 5677 5679 5681 5683 5686 5689 5692 5693 5694 5695 5697 5698 5699 5700 5702
5668 5666 5664 5662 5659 5656 5653 5650 5647 5645 5643 5641 5639 5638 5637 5637 5637 5638 5641 5642 5644 5646 5648 5650 5653 5656 5658 5661 5663 5665 5667 5669 5671 5674 5678 5680 5681 5682 5683 5684 5686 5687 5688
5658 5656 5654 5652 5649 5646 5643 5639 5636 5633 5631 5629 5627 5626 5625 5625 5624 5625 5627 5628 5630 5631 5634 5636 5640 5642 5645 5648 5650 5652 5654 5656 5658 5659 5662 5665 5667 5669 5669 5670 5671 5673 5674
Wind_Speed
17 18 18 19 19 19 20 20 21 21 21 21 21 20 20 20 19 19 19 19 18 17 17 16 16 16 16 15 15 15 14 13 12 12 12 12 12 12 12 12 11 11 11
19 19 20 20 20 21 21 21 21 22 22 22 22 22 22 22 21 21 21 20 20 20 19 19 18 18 18 17 17 16 16 16 14 14 13 13 13 13 14 13 13 13 13
20 21 21 22 22 22 22 22 23 23 23 23 24 24 24 24 23 23 23 22 22 21 21 21 20 20 19 18 18 18 18 17 17 16 15 15 15 15 15 15 15 15 15
21 22 23 23 24 24 25 25 25 25 25 25 25 25 26 26 26 25 25 24 23 23 23 23 22 22 22 21 20 19 19 19 18 18 17 17 17 17 17 17 17 17 17
22 23 24 25 25 26 26 27 27 27 27 27 27 27 27 27 27 27 27 26 25 25 24 24 24 23 23 23 22 22 21 21 20 20 19 19 19 18 18 18 18 18 18
25 25 26 26 27 28 28 28 29 29 29 29 29 29 29 29 29 29 29 28 28 27 27 26 26 25 25 25 24 24 23 23 22 21 21 21 21 21 20 20 19 19 19
27 27 28 28 29 30 30 31 31 31 31 31 31 31 31 32 31 31 31 30 30 29 29 29 28 27 27 26 25 25 25 24 23 23 22 22 22 22 22 22 21 21 21
29 29 30 30 31 31 32 33 33 34 34 34 34 34 34 34 34 33 33 33 32 32 31 31 30 29 29 28 27 27 26 26 24 24 24 23 23 24 23 23 23 23 23
31 31 32 32 33 33 34 34 35 36 36 37 36 36 36 36 36 36 36 35 35 34 34 33 32 32 30 30 29 29 28 27 27 26 25 25 24 25 24 25 25 25 25
33 34 34 34 35 36 36 37 37 38 39 39 40 39 39 39 39 39 38 38 37 36 36 35 34 34 33 32 31 31 30 29 28 27 27 26 26 26 26 26 27 26 26
34 35 36 37 37 38 38 39 39 40 41 42 42 42 42 42 41 41 41 40 40 39 38 37 37 36 35 34 33 33 32 31 30 29 28 28 28 28 28 28 28 28 28
35 36 37 38 39 39 40 40 40 41 42 43 44 44 44 44 44 43 43 42 42 41 41 40 39 38 37 36 35 34 34 33 32 31 30 30 29 29 29 29 29 29 29
36 37 38 39 39 40 40 40 41 42 43 43 44 44 45 45 45 45 44 44 44 43 42 42 41 40 39 38 38 37 36 34 34 33 33 32 32 31 31 31 30 30 30
36 37 38 39 39 40 41 41 42 42 43 43 43 44 46 46 47 46 46 45 45 45 44 43 43 42 41 40 39 39 38 36 36 35 35 34 34 33 33 32 33 32 32
36 38 39 39 40 41 42 42 43 43 43 43 44 45 46 47 47 47 48 47 47 46 46 45 45 45 44 43 42 41 40 39 38 38 37 37 35 35 34 34 34 34 33
36 37 38 39 40 41 43 43 43 44 44 45 45 46 47 48 48 48 49 49 49 48 47 47 47 47 46 44 43 43 42 42 41 40 39 39 38 37 36 36 35 35 35
36 37 37 38 40 41 42 43 44 44 45 46 47 47 48 49 48 48 49 50 50 49 49 49 48 48 46 46 45 45 44 44 43 43 42 42 41 40 39 38 38 37 38
35 35 36 37 38 39 40 41 42 43 44 45 47 48 48 49 49 49 50 51 51 51 51 50 50 50 50 49 48 48 47 46 46 45 45 44 44 43 42 41 41 40 39
34 35 36 37 38 39 39 40 41 41 42 44 45 47 48 49 49 50 50 52 52 53 52 51 51 51 51 50 50 50 49 49 48 48 47 46 46 45 45 44 43 42 41
34 34 36 37 38 38 39 39 40 41 42 43 46 47 48 49 50 50 50 51 52 53 52 52 52 52 53 52 51 51 51 51 50 49 48 48 47 47 47 46 45 44 44
33 34 34 35 36 37 38 39 40 41 42 44 46 47 49 50 50 50 50 51 51 52 52 52 52 52 54 53 53 53 52 52 50 50 50 49 49 49 48 47 47 46 45
32 33 33 34 35 37 38 39 39 40 42 44 44 45 46 47 48 49 50 50 50 51 51 52 52 53 54 54 54 54 54 53 52 51 51 51 51 50 50 49 48 47 47
32 33 33 34 35 37 38 39 40 41 41 42 42 42 43 45 46 47 49 48 49 50 51 52 52 53 53 54 54 54 54 54 53 51 51 52 52 51 50 50 49 48 48
32 32 32 33 34 36 37 38 39 40 40 40 40 40 42 44 45 46 47 47 48 50 50 51 50 51 51 52 53 53 54 54 53 52 51 51 50 50 50 49 49 49 49
30 31 31 32 33 34 35 36 37 38 38 39 39 39 40 42 44 46 46 47 48 49 50 51 50 49 49 50 51 52 53 53 53 53 51 50 49 49 49 49 49 50 50
29 30 30 31 32 32 33 34 35 36 36 37 37 37 38 40 42 44 47 47 48 48 48 48 49 48 48 48 48 50 51 51 51 52 52 50 49 49 48 48 48 48 49
Wind_Direction
248 248 248 248 249 249 250 250 251 252 253 254 254 256 257 257 257 258 259 261 262 263 264 265 268 271 274 274 274 276 275 276 277 277 280 282 283 285 287 289 290 292 294
248 249 249 249 250 250 250 251 252 253 254 255 256 256 257 258 258 259 259 261 262 263 263 264 266 269 271 272 273 275 275 274 276 276 278 280 282 283 284 286 287 288 290
249 250 250 251 251 252 251 251 252 254 255 256 256 257 258 258 259 259 259 260 262 263 264 264 265 267 269 271 272 273 274 274 275 276 278 278 279 281 283 283 284 285 288
251 251 252 253 254 254 254 254 253 254 255 256 256 257 258 258 259 260 261 261 261 262 265 265 265 266 268 270 272 274 273 272 274 276 276 277 278 278 280 281 280 282 285
253 253 253 254 255 256 256 256 256 256 255 256 256 257 258 258 258 259 260 261 262 262 263 265 266 267 268 270 271 272 274 273 272 274 276 277 278 278 279 280 279 279 281
256 256 256 256 257 257 257 257 257 257 257 257 257 257 258 259 258 259 260 261 262 263 263 264 266 266 267 269 271 272 272 272 272 272 274 276 277 277 277 278 279 278 279
259 259 259 259 259 259 258 259 258 258 258 258 258 258 258 259 259 259 259 260 261 262 262 263 265 265 266 268 269 271 273 272 271 271 273 274 275 277 276 276 277 278 279
260 261 262 262 261 260 260 260 260 260 259 259 259 259 259 259 259 259 259 260 260 261 261 263 263 265 265 266 267 269 271 271 271 272 273 274 274 276 277 276 276 276 277
261 261 261 262 262 261 261 261 261 261 260 259 259 259 259 259 259 260 260 260 260 260 261 262 263 263 265 265 265 266 268 269 269 270 272 273 273 275 276 276 276 276 276
262 262 262 262 262 263 263 262 262 262 261 260 260 260 260 260 259 259 259 259 259 260 260 261 262 263 263 264 265 265 266 267 268 268 270 271 273 274 275 275 275 276 277
263 263 263 263 263 264 264 264 263 263 262 262 261 260 259 259 259 259 259 259 259 259 259 260 260 262 262 262 264 265 264 265 266 268 269 270 272 273 274 275 275 274 275
264 264 265 265 265 265 265 265 265 264 264 263 262 261 259 259 258 258 258 259 259 259 259 259 260 261 262 262 263 264 264 263 264 266 268 269 270 271 273 275 275 274 274
265 265 264 265 265 265 265 265 265 265 264 263 262 261 259 258 257 257 258 258 258 258 259 259 259 260 261 262 263 262 263 262 263 265 266 268 270 271 272 274 274 275 274
267 266 265 265 265 265 266 266 266 266 265 263 263 261 260 259 258 257 257 257 258 258 258 258 259 260 260 261 261 261 262 262 262 263 265 266 268 270 271 272 273 273 275
268 268 268 267 266 266 266 267 266 265 264 263 263 262 261 260 259 257 256 256 256 256 257 257 259 259 259 259 260 261 261 262 262 263 264 265 266 267 269 270 272 273 274
269 270 269 269 268 268 268 267 266 265 264 264 264 263 262 260 259 258 256 256 257 256 256 257 258 258 258 258 258 260 262 263 262 262 263 264 265 265 266 268 269 271 273
271 271 271 271 270 270 270 269 267 266 265 265 264 263 262 260 259 258 257 256 256 256 257 257 257 257 258 258 258 259 260 262 262 262 263 264 265 265 265 266 268 270 271
273 273 273 273 272 272 272 271 269 268 267 265 264 264 263 261 259 258 258 256 256 256 257 257 258 257 257 258 259 259 260 260 261 262 262 263 264 264 264 265 267 268 269
274 273 273 274 273 273 273 272 271 269 269 267 265 264 264 262 260 258 258 257 256 257 258 257 258 258 258 258 258 259 259 259 260 261 261 262 262 263 263 265 266 267 268
275 275 275 274 274 273 273 272 272 271 270 270 268 266 265 263 260 259 258 258 257 257 257 257 257 257 258 257 258 258 259 260 260 260 261 262 263 263 264 264 265 266 266
277 277 277 276 275 274 275 273 273 274 274 273 271 268 265 263 261 259 259 258 258 258 258 258 257 257 258 257 258 258 259 260 260 260 261 262 264 265 265 265 264 264 265
278 278 277 277 276 276 276 276 275 275 276 275 273 269 265 262 261 260 259 259 259 259 259 258 258 258 258 258 258 259 259 259 259 260 261 262 263 265 265 265 265 264 264
279 280 279 279 278 278 277 277 276 278 278 276 272 270 267 264 261 260 258 258 259 259 259 258 258 257 258 258 259 259 260 259 259 260 261 262 263 264 265 265 264 264 264
281 282 282 281 282 282 280 279 278 278 279 277 273 271 269 265 262 260 259 260 260 260 259 258 258 257 258 259 259 260 261 261 260 259 260 262 263 264 264 264 263 263 262
283 284 283 284 285 284 283 282 280 280 280 278 274 273 270 267 263 261 261 261 261 259 259 258 257 257 257 260 260 261 261 262 261 261 260 261 262 264 264 263 262 262 262
286 286 284 285 285 285 286 285 284 283 280 278 276 274 271 269 265 262 262 261 261 260 259 258 257 257 259 260 261 261 262 262 263 262 261 261 261 262 263 262 262 262 262